MDT,Max TemperatureF,Mean TemperatureF,Min TemperatureF,Max Dew PointF,MeanDew PointF,Min DewpointF,Max Humidity, Mean Humidity, Min Humidity, Max Sea Level PressureIn, Mean Sea Level PressureIn, Min Sea Level PressureIn, Max VisibilityMiles, Mean VisibilityMiles, Min VisibilityMiles, Max Wind SpeedMPH, Mean Wind SpeedMPH, Max Gust SpeedMPH,PrecipitationIn, CloudCover, Events, WindDirDegrees
2011-10-1,69,56,43,50,45,41,93,67,40,29.91,29.86,29.83,10,10,10,10,3,14,0.01,1,,12
2011-10-2,74,57,39,50,46,41,100,69,37,29.99,29.95,29.89,10,10,7,10,2,14,0.03,3,,164
2011-10-3,73,56,38,49,43,37,93,66,38,29.97,29.85,29.70,10,10,10,15,4,20,0.00,0,,17
2011-10-4,57,50,43,52,48,43,100,89,77,29.76,29.69,29.64,10,10,9,20,2,99,0.11,5,Rain,330
2011-10-5,56,48,40,48,45,39,100,92,83,29.62,29.55,29.42,10,6,0,20,5,30,0.40,5,Fog-Rain,326
2011-10-6,55,51,47,46,44,42,100,83,66,29.78,29.65,29.52,10,10,10,15,4,20,0.02,8,Rain,346
2011-10-7,49,48,46,47,46,43,100,93,86,30.07,29.83,29.74,10,8,2,15,6,17,0.64,8,Rain,164
2011-10-8,57,46,35,45,41,35,100,74,47,30.26,30.21,30.07,10,8,0,14,4,18,0.00,6,Fog,178
2011-10-9,55,42,28,44,34,28,100,80,59,30.20,30.10,29.93,10,6,0,6,0,8,0.00,3,Fog,302
2011-10-10,59,49,38,47,42,39,100,78,55,29.90,29.74,29.62,10,10,6,13,4,15,0.02,6,Rain,207
2011-10-11,55,51,46,46,43,39,86,76,66,29.96,29.74,29.62,10,10,7,20,7,25,0.12,8,Rain,191
2011-10-12,54,48,41,41,39,36,89,72,54,30.14,30.09,29.98,10,10,9,18,6,71,0.03,7,Rain,206
2011-10-13,57,44,30,39,34,29,100,71,41,30.19,30.14,30.07,10,10,10,17,3,23,T,5,Rain,276
2011-10-14,45,37,28,39,34,27,100,83,65,30.16,30.10,29.98,10,10,8,9,1,20,0.06,5,Rain,338
2011-10-15,51,40,28,39,36,28,100,78,56,30.18,30.07,30.00,10,6,0,10,1,13,0.04,5,Fog-Rain,172
2011-10-16,51,39,26,37,31,26,100,76,52,30.25,30.15,30.07,10,8,2,12,3,15,0.00,0,,232
2011-10-17,51,39,27,39,31,27,100,80,59,30.47,30.35,30.21,10,7,0,9,1,10,0.00,6,Fog,222
2011-10-18,57,41,25,38,29,23,100,72,43,30.53,30.43,30.23,10,3,0,6,0,9,0.00,3,Fog,135
2011-10-19,52,38,24,40,30,23,100,80,59,30.20,30.07,29.97,10,6,0,8,2,12,0.00,3,Fog,206
2011-10-20,59,45,30,44,36,30,100,76,51,30.12,30.03,29.99,10,5,0,16,3,20,0.00,7,Fog,192
2011-10-21,57,44,30,45,39,29,100,79,57,30.22,30.15,30.08,10,10,9,24,5,26,T,5,,171
2011-10-22,56,49,41,43,42,41,77,75,71,30.14,30.11,30.09,10,10,10,17,7,23,0.19,6,,173
2011-10-23,57,45,33,,,,,,,,,,,,,15,2,21,0.02,,,
2011-10-24,47,39,30,38,33,31,89,74,58,30.24,30.15,30.05,10,10,10,16,2,26,0.01,7,,76
2011-10-25,49,36,22,31,24,19,100,71,42,30.43,30.32,30.18,10,7,0,10,2,14,0.00,2,Fog,4
2011-10-26,46,38,29,30,23,17,96,68,40,30.43,30.26,30.06,10,10,9,14,4,,0.00,4,,201
2011-10-27,50,36,21,29,23,16,92,59,26,30.31,30.21,30.06,10,9,2,15,3,21,0.00,3,,299
2011-10-28,46,32,18,32,25,17,92,71,49,30.33,30.14,29.90,10,10,10,14,4,22,T,3,Rain,229
2011-10-29,54,40,25,36,29,21,85,58,30,30.28,30.10,29.85,10,10,10,17,5,22,0.02,3,Rain,235
2011-10-30,52,37,22,43,33,21,96,73,50,30.30,30.11,29.90,10,10,10,14,3,16,T,6,Rain,217
2011-10-31,50,40,30,44,35,27,100,73,46,30.21,29.99,29.86,10,7,0,25,6,32,0.14,6,Fog-Rain,237